[[{"header":{"parameterUnit":"m.s-1","parameterCategory":1,"la1":30.2991,"la2":30.254,"lo1":-89.0895,"lo2":-89.0444,"dy":0.0017,"dx":0.0017,"nx":28,"ny":28,"refTime":"2025-09-09T03:00:00:Z","depth":0,"parameterNumber":2,"parameterNumberName":"U-component_of_WINDS"},"data":[0,0,0,0,0,0,0,0,0,0,0,0,0,0,0,0,0,0,0,0,0,0,0,0,0,0,0,0,0,0,0,0,0,0,0,0,0,0,0,0,0,0,0,0,0,0,0,0,0,0,0,0,0,0,0,0,0,0,-3.7503,-3.7503,0,-3.7547,-3.7548,-3.7548,-3.7379,-3.7374,-3.7368,-3.7364,-3.7412,-3.7417,-3.7423,0,0,0,0,0,0,0,0,0,0,0,0,0,-3.7272,-3.7277,-3.7503,-3.7503,-3.7504,-3.7547,-3.7548,-3.7549,-3.7379,-3.7373,-3.7367,-3.7361,-3.741,-3.7417,-3.7424,0,0,0,0,0,0,0,0,0,0,0,0,0,-3.735,-3.7278,-3.7503,-3.7425,-3.7418,-3.7547,-3.7548,-3.7549,-3.7381,-3.7373,-3.7366,-3.7358,-3.7407,-3.7416,-3.7425,-3.7632,0,0,-3.7452,-3.7456,0,0,0,0,0,0,0,0,-3.7346,-3.7359,-3.7436,-3.743,-3.7423,-3.745,-3.7484,-3.7577,-3.7383,-3.7395,-3.7364,-3.7355,-3.7431,-3.7437,-3.7462,-3.7634,-3.7636,-3.7453,-3.7459,-3.7462,-3.7465,0,0,0,0,0,0,0,-3.734,-3.7356,-3.752,-3.7437,-3.7429,-3.7388,-3.739,-3.7501,-3.7455,-3.7393,-3.7381,-3.7389,-3.7426,-3.7454,-3.7462,-3.7637,-3.7453,-3.7461,-3.7466,-3.747,-3.7981,-3.7988,0,0,0,0,0,0,-3.7345,-3.7352,-3.7519,-3.7522,-3.7365,-3.7398,-3.7401,-3.7449,-3.7453,-3.7446,-3.7395,-3.7381,-3.7442,-3.7452,-3.7463,-3.7706,-3.7462,-3.7471,-3.7476,-3.7973,-3.7983,-3.7991,0,0,0,0,0,0,-3.7341,-3.7362,-3.7517,-3.7434,-3.745,-3.741,-3.7465,-3.7454,-3.7482,-3.7454,-3.7445,-3.7432,-3.7437,-3.7451,-3.7591,-3.7705,-3.7475,-3.7483,-3.7963,-3.7976,-3.7987,-3.8194,0,0,0,0,0,0,-3.7335,-3.7361,-3.7439,-3.7437,-3.7455,-3.7645,-3.7472,-3.746,-3.7497,-3.7479,-3.7487,-3.7481,-3.7432,-3.7579,-3.76,-3.7713,-3.749,-3.7953,-3.7969,-3.7983,-3.8177,-3.8212,-3.8241,0,0,0,0,0,-3.7327,-3.7496,-3.7444,-3.7465,-3.7552,-3.7652,-3.7662,-3.7602,-3.7507,-3.7586,-3.7568,-3.7481,-3.7689,-3.7594,-3.7617,-3.7735,-3.7945,-3.7964,-3.7982,-3.8162,-3.8205,-3.8241,0,0,0,0,0,0,-3.7514,-3.7495,-3.7437,-3.761,-3.7634,-3.7623,-3.772,-3.7649,-3.7701,-3.7681,-3.7604,-3.7607,-3.7762,-3.7762,-3.7657,-3.7935,-3.7801,-3.7825,-3.793,-3.797,-3.8002,-3.8,-3.7497,0,0,0,0,0,-3.7575,-3.7657,-3.7636,-3.7791,-3.7805,-3.7761,-3.7802,-3.7753,-3.7775,-3.7785,-3.7777,-3.7802,-3.7873,-3.7921,-3.7985,-3.8175,-3.8175,-3.8267,-3.83,-3.8327,-3.8349,-3.8449,-3.849,-3.8052,-3.8052,-3.8051,0,0,-3.7703,-3.7702,-3.7759,-3.7828,-3.7841,-3.7928,-3.7771,-3.7869,-3.7933,-3.7799,-3.7932,-3.7927,-3.795,-3.8117,-3.8189,-3.8122,-3.8469,-3.835,-3.8372,-3.8379,-3.8473,-3.8514,-3.8551,-3.8064,-3.8062,-3.806,0,0,-3.798,-3.7988,-3.8117,-3.8133,-3.8154,-3.8123,-3.8155,-3.8155,-3.8147,-3.8278,-3.8179,-3.8254,-3.8377,-3.8398,-3.8424,-3.8709,-3.8631,-3.8731,-3.8902,-3.9001,-3.9035,-3.9066,-3.9168,-3.9205,-3.8753,-3.8754,-3.8754,0,-3.8137,-3.8263,-3.8193,-3.8299,-3.8332,-3.8214,-3.8345,-3.8364,-3.8405,-3.8431,-3.8354,-3.8506,-3.8513,-3.8683,-3.8752,-3.8778,-3.8811,-3.8731,-3.9036,-3.9066,-3.9093,-3.9189,-3.9228,-3.8766,-3.8764,-3.8763,-3.8762,0,-3.8454,-3.8544,-3.8646,-3.8688,-3.8733,-3.8851,-3.88,-3.8853,-3.88,-3.8778,-3.8913,-3.8917,-3.8979,-3.9015,-3.8965,-3.9179,-3.9136,-3.9049,-3.8912,-3.9148,-3.9237,-3.9274,-3.8783,-3.8779,-3.8775,-3.8772,0,0,-3.8852,-3.8853,-3.8892,-3.891,-3.8924,-3.8992,-3.9104,-3.9164,-3.9212,-3.9244,-3.9337,-3.9444,-3.9363,-3.9394,-3.9344,-3.9431,-3.9656,-3.9333,-3.9332,-3.9394,-3.9892,-3.9959,-4.0003,-3.9604,-3.9611,-3.9616,-3.9891,0,-3.9125,-3.9316,-3.9257,-3.9451,-3.9532,-3.9421,-3.9518,-3.9538,-3.952,-3.9587,-3.9566,-3.9644,-3.9531,-3.9549,-3.963,-3.9612,-3.9756,-3.9591,-3.9691,-3.9695,-3.969,-4.0049,-4.0119,-4.0378,-3.9925,-3.9931,-3.9935,0,-3.9469,-3.9514,-3.9716,-3.9716,-3.9748,-3.9837,-3.9887,-3.9952,-3.9972,-3.9953,-3.9987,-3.9919,-4.0029,-3.9891,-4.0043,-3.9932,-3.9969,-3.9967,-3.9975,-3.9983,-3.983,-4.0068,-4.0459,-4.0499,-3.9989,-3.9985,-3.9981,0,-3.9739,-3.9851,-3.9986,-4.0004,-4.0007,-4.0073,-4.0077,-4.0089,-4.0129,-4.0173,-4.0198,-4.0255,-4.0286,-4.0332,-4.0281,-4.0185,-4.0441,-4.0298,-4.0428,-4.043,-4.0488,-4.0485,-4.0892,-4.0511,-4.051,-4.0509,-4.0509,0,-4.0051,-4.0179,-4.0107,-4.0191,-4.0331,-4.0261,-4.0402,-4.0393,-4.0405,-4.0485,-4.0392,-4.0469,-4.0397,-4.0468,-4.0429,-4.056,-4.0575,-4.0563,-4.0551,-4.0572,-4.0574,-4.0596,-4.0577,-4.052,-4.0517,-4.0515,-4.0514,0,-4.0377,-4.0334,-4.0475,-4.0466,-4.0466,-4.057,-4.0563,-4.064,-4.0614,-4.0716,-4.0736,-4.0697,-4.0775,-4.0729,-4.0809,-4.0783,-4.0954,-4.0918,-4.0948,-4.0939,-4.1071,-4.106,-4.1508,-4.1563,-4.1145,-4.1149,-4.1153,0,-4.0579,-4.0675,-4.0677,-4.0723,-4.0734,-4.081,-4.085,-4.0784,-4.083,-4.0859,-4.0933,-4.1003,-4.1056,-4.1186,-4.1165,-4.1226,-4.119,-4.1343,-4.1199,-4.1217,-4.1193,-4.1189,-4.1198,-4.1373,-4.1377,-4.1381,-4.1385,0,-4.0943,-4.0917,-4.0977,-4.1032,-4.1082,-4.1122,-4.1154,-4.1197,-4.1131,-4.1188,-4.1266,-4.1307,-4.1388,-4.1459,-4.1511,-4.1515,-4.1441,-4.143,-4.1463,-4.1486,-4.15,-4.1495,-4.1028,-4.142,-4.1417,-4.1414,-4.1412,-4.1411,-4.1213,-4.1293,-4.1307,-4.1378,-4.1395,-4.1427,-4.1498,-4.1482,-4.1546,-4.1607,-4.1564,-4.1657,-4.1674,-4.1735,-4.1749,-4.1821,-4.176,-4.1808,-4.182,-4.1833,-4.1852,-4.1488,-4.183,-4.1829,-4.1828,-4.1827,-4.1826,0,-4.1572,-4.1575,-4.1641,-4.1688,-4.1745,-4.1667,-4.1699,-4.1751,-4.1834,-4.1856,-4.1909,-4.2,-4.2068,-4.2052,-4.2113,-4.2174,-4.2141,-4.2193,-4.2188,-4.2191,-4.1903,-4.1869,-4.2218,-4.2218,-4.2218,-4.2218,-4.2218,-4.2218,-4.1766,-4.1897,-4.1873,-4.2012,-4.2013,-4.2103,-4.2128,-4.2157,-4.2173,-4.2279,-4.2335,-4.2323,-4.233,-4.2391,-4.245,-4.2444,-4.2471,-4.2536,-4.2517,-4.2249,-4.2211,-4.2174,-4.2141,-4.2542,-4.2543,-4.2798,-4.28,-4.2802]},{"header":{"parameterUnit":"m.s-1","parameterCategory":1,"la1":30.2991,"la2":30.254,"lo1":-89.0895,"lo2":-89.0444,"dy":0.0017,"dx":0.0017,"nx":28,"ny":28,"refTime":"2025-09-09T03:00:00:Z","depth":0,"parameterNumber":3,"parameterNumberName":"V-component_of_WINDS"},"data":[0,0,0,0,0,0,0,0,0,0,0,0,0,0,0,0,0,0,0,0,0,0,0,0,0,0,0,0,0,0,0,0,0,0,0,0,0,0,0,0,0,0,0,0,0,0,0,0,0,0,0,0,0,0,0,0,0,0,-2.8199,-2.8199,0,-2.8226,-2.8226,-2.8227,-2.822,-2.822,-2.8219,-2.8219,-2.8245,-2.8246,-2.8247,0,0,0,0,0,0,0,0,0,0,0,0,0,-2.8138,-2.8139,-2.8199,-2.8199,-2.8199,-2.8226,-2.8226,-2.8227,-2.822,-2.822,-2.8219,-2.8219,-2.8244,-2.8246,-2.8247,0,0,0,0,0,0,0,0,0,0,0,0,0,-2.8164,-2.8139,-2.8198,-2.8199,-2.82,-2.8226,-2.8226,-2.8227,-2.8221,-2.822,-2.8219,-2.8218,-2.8244,-2.8246,-2.8247,-2.8274,0,0,-2.8253,-2.8254,0,0,0,0,0,0,0,0,-2.8163,-2.8167,-2.8199,-2.8199,-2.82,-2.8219,-2.8214,-2.8242,-2.8221,-2.8213,-2.8219,-2.8218,-2.8237,-2.8239,-2.8246,-2.8275,-2.8276,-2.8253,-2.8254,-2.8255,-2.8255,0,0,0,0,0,0,0,-2.8161,-2.8165,-2.8209,-2.8199,-2.82,-2.8197,-2.82,-2.822,-2.8229,-2.8213,-2.8213,-2.8216,-2.8237,-2.8244,-2.8246,-2.8276,-2.8253,-2.8254,-2.8256,-2.8256,-2.8325,-2.8326,0,0,0,0,0,0,-2.8159,-2.8164,-2.8208,-2.821,-2.8179,-2.8199,-2.8202,-2.8214,-2.8228,-2.823,-2.8217,-2.8216,-2.8241,-2.8244,-2.8247,-2.8277,-2.8255,-2.8256,-2.8257,-2.8325,-2.8326,-2.8326,0,0,0,0,0,0,-2.8158,-2.8163,-2.8207,-2.8187,-2.8192,-2.8201,-2.8214,-2.8215,-2.8222,-2.8231,-2.8232,-2.8223,-2.8241,-2.8245,-2.8267,-2.8278,-2.8257,-2.8259,-2.8324,-2.8325,-2.8326,-2.8338,0,0,0,0,0,0,-2.8156,-2.8163,-2.8174,-2.8187,-2.8193,-2.8227,-2.8214,-2.8216,-2.8225,-2.8224,-2.8237,-2.8239,-2.8241,-2.8264,-2.8268,-2.828,-2.826,-2.8323,-2.8324,-2.8326,-2.8337,-2.8339,-2.8342,0,0,0,0,0,-2.8154,-2.8176,-2.8174,-2.818,-2.8208,-2.8228,-2.8232,-2.8234,-2.8226,-2.8236,-2.8242,-2.8238,-2.8276,-2.8266,-2.8271,-2.8283,-2.8322,-2.8324,-2.8326,-2.8335,-2.8339,-2.8342,0,0,0,0,0,0,-2.8164,-2.8178,-2.8176,-2.8204,-2.8215,-2.8227,-2.824,-2.8238,-2.8251,-2.825,-2.8252,-2.8254,-2.8276,-2.8282,-2.8271,-2.8308,-2.8298,-2.8301,-2.8304,-2.8307,-2.8309,-2.8307,-2.8262,0,0,0,0,0,-2.8169,-2.8186,-2.8197,-2.822,-2.8226,-2.8232,-2.8241,-2.8242,-2.8253,-2.8258,-2.8265,-2.8275,-2.8289,-2.8299,-2.8312,-2.8338,-2.8339,-2.8348,-2.8351,-2.8353,-2.8355,-2.8366,-2.837,-2.8332,-2.8332,-2.8332,0,0,-2.8181,-2.819,-2.8201,-2.8222,-2.8231,-2.8246,-2.8236,-2.8253,-2.8264,-2.826,-2.8281,-2.8286,-2.8298,-2.8321,-2.8332,-2.8327,-2.8366,-2.8355,-2.8357,-2.8358,-2.8369,-2.8372,-2.8375,-2.8333,-2.8333,-2.8333,0,0,-2.8209,-2.8219,-2.8238,-2.8246,-2.8259,-2.8263,-2.8268,-2.828,-2.8283,-2.8305,-2.8301,-2.8314,-2.8338,-2.8346,-2.8353,-2.8382,-2.8378,-2.8386,-2.84,-2.8411,-2.8414,-2.8416,-2.8425,-2.8428,-2.8389,-2.8389,-2.8389,0,-2.8221,-2.8245,-2.8248,-2.8265,-2.8273,-2.827,-2.8288,-2.8297,-2.8313,-2.8319,-2.8313,-2.8343,-2.835,-2.8374,-2.8381,-2.8387,-2.8391,-2.8385,-2.8413,-2.8416,-2.8418,-2.8426,-2.843,-2.8389,-2.8389,-2.8389,-2.8389,0,-2.8258,-2.8275,-2.8288,-2.8304,-2.8314,-2.8332,-2.8336,-2.8346,-2.8346,-2.8349,-2.8369,-2.8378,-2.8393,-2.8399,-2.8399,-2.8422,-2.8418,-2.8413,-2.8402,-2.8423,-2.843,-2.8433,-2.839,-2.839,-2.839,-2.839,0,0,-2.8294,-2.831,-2.8315,-2.8321,-2.8334,-2.8346,-2.8363,-2.8377,-2.8384,-2.8396,-2.8408,-2.8429,-2.8423,-2.8431,-2.8432,-2.8442,-2.8462,-2.8435,-2.8435,-2.8438,-2.8485,-2.8488,-2.8492,-2.8459,-2.846,-2.8461,-2.8484,0,-2.8322,-2.8352,-2.8354,-2.838,-2.8394,-2.839,-2.8404,-2.8413,-2.8417,-2.8428,-2.8432,-2.8446,-2.8439,-2.8443,-2.8453,-2.8457,-2.8471,-2.8456,-2.847,-2.847,-2.8466,-2.8496,-2.85,-2.8521,-2.8487,-2.8487,-2.8488,0,-2.8359,-2.837,-2.8398,-2.8407,-2.8413,-2.8426,-2.8438,-2.845,-2.8459,-2.846,-2.8469,-2.8467,-2.8483,-2.8472,-2.8492,-2.8482,-2.8488,-2.849,-2.8491,-2.8492,-2.848,-2.8496,-2.8528,-2.8531,-2.8493,-2.8492,-2.8492,0,-2.8379,-2.8402,-2.8421,-2.8427,-2.8439,-2.8447,-2.8452,-2.8461,-2.8469,-2.8479,-2.8483,-2.8495,-2.8501,-2.851,-2.8511,-2.8504,-2.8531,-2.8521,-2.8531,-2.8531,-2.8537,-2.8536,-2.8569,-2.8543,-2.8543,-2.8543,-2.8542,0,-2.841,-2.8426,-2.843,-2.8442,-2.8459,-2.8461,-2.8478,-2.8483,-2.849,-2.8501,-2.8499,-2.8509,-2.8511,-2.8522,-2.8523,-2.8538,-2.8541,-2.8542,-2.8542,-2.8542,-2.8541,-2.8545,-2.8543,-2.8543,-2.8543,-2.8543,-2.8543,0,-2.8436,-2.8439,-2.8459,-2.8468,-2.8471,-2.8483,-2.8491,-2.8501,-2.8504,-2.8518,-2.8521,-2.8526,-2.8538,-2.854,-2.8554,-2.8555,-2.8573,-2.8572,-2.857,-2.8569,-2.8579,-2.8577,-2.8614,-2.8618,-2.8591,-2.8591,-2.8591,0,-2.8454,-2.8467,-2.8477,-2.8484,-2.8489,-2.8502,-2.8509,-2.851,-2.8518,-2.8529,-2.8537,-2.8549,-2.8558,-2.8577,-2.8581,-2.8591,-2.859,-2.8602,-2.8591,-2.859,-2.8588,-2.8587,-2.8587,-2.8604,-2.8604,-2.8604,-2.8604,0,-2.8486,-2.8486,-2.8498,-2.8509,-2.8518,-2.8527,-2.8535,-2.8541,-2.8543,-2.8552,-2.8564,-2.8571,-2.8585,-2.8596,-2.8606,-2.861,-2.8607,-2.8608,-2.861,-2.861,-2.8607,-2.8607,-2.8574,-2.8607,-2.8607,-2.8606,-2.8606,-2.8606,-2.8508,-2.8518,-2.8526,-2.8537,-2.8544,-2.8551,-2.856,-2.8564,-2.8575,-2.8586,-2.8586,-2.8599,-2.8606,-2.8619,-2.8624,-2.8633,-2.8629,-2.8633,-2.8634,-2.8635,-2.8635,-2.8607,-2.8635,-2.8635,-2.8635,-2.8635,-2.8635,0,-2.8537,-2.8542,-2.8553,-2.8564,-2.8573,-2.857,-2.8578,-2.8586,-2.8597,-2.8604,-2.8613,-2.8626,-2.8636,-2.864,-2.865,-2.8656,-2.8655,-2.8659,-2.8658,-2.8658,-2.8639,-2.8635,-2.866,-2.866,-2.866,-2.866,-2.866,-2.866,-2.8554,-2.857,-2.8571,-2.859,-2.8594,-2.8607,-2.8612,-2.8618,-2.8623,-2.8638,-2.8646,-2.8649,-2.8654,-2.8664,-2.8673,-2.8674,-2.8677,-2.8681,-2.8681,-2.8663,-2.866,-2.8658,-2.8654,-2.8682,-2.8682,-2.87,-2.87,-2.87]}]]